QPF
0.00 0.00 0.00 0.00 0.00 0.01 0.02 0.03 0.04 0.04 0.05 0.06 0.04 0.04 0.06 0.06 0.06 0.05 0.04 0.03 0.02 0.02 0.03 0.05 0.07 0.05 0.07 0.06 0.06 0.07 0.08 0.07 0.07 0.10 0.10 0.09 0.06 0.05 0.05 0.06 0.06 0.04 0.04
0.00 0.00 0.00 0.00 0.00 0.00 0.01 0.03 0.04 0.04 0.04 0.05 0.06 0.06 0.08 0.07 0.07 0.06 0.06 0.03 0.02 0.02 0.03 0.06 0.06 0.06 0.08 0.06 0.06 0.08 0.11 0.08 0.05 0.08 0.12 0.16 0.16 0.12 0.05 0.06 0.06 0.04 0.05
0.00 0.00 0.00 0.00 0.00 0.00 0.01 0.02 0.04 0.05 0.05 0.07 0.07 0.08 0.10 0.09 0.08 0.09 0.06 0.04 0.02 0.02 0.03 0.04 0.05 0.06 0.04 0.08 0.07 0.06 0.08 0.09 0.06 0.05 0.08 0.14 0.18 0.14 0.10 0.07 0.06 0.06 0.07
0.01 0.01 0.01 0.00 0.01 0.01 0.02 0.03 0.06 0.06 0.05 0.09 0.10 0.09 0.07 0.08 0.08 0.07 0.06 0.04 0.04 0.03 0.03 0.04 0.04 0.05 0.06 0.09 0.05 0.05 0.05 0.07 0.08 0.06 0.04 0.06 0.10 0.11 0.11 0.09 0.07 0.07 0.06
0.00 0.02 0.02 0.01 0.01 0.01 0.02 0.04 0.08 0.09 0.07 0.07 0.10 0.09 0.10 0.11 0.10 0.08 0.09 0.06 0.04 0.03 0.03 0.04 0.05 0.04 0.06 0.06 0.05 0.07 0.04 0.05 0.06 0.06 0.05 0.04 0.05 0.06 0.09 0.11 0.09 0.07 0.04
0.00 0.00 0.01 0.01 0.01 0.02 0.03 0.05 0.08 0.09 0.07 0.06 0.06 0.09 0.11 0.11 0.11 0.10 0.09 0.06 0.05 0.04 0.03 0.04 0.05 0.03 0.04 0.05 0.05 0.05 0.04 0.06 0.06 0.05 0.04 0.04 0.05 0.04 0.07 0.08 0.08 0.06 0.04
0.00 0.00 0.00 0.01 0.01 0.02 0.03 0.04 0.06 0.08 0.07 0.06 0.07 0.08 0.09 0.10 0.10 0.09 0.08 0.07 0.06 0.05 0.05 0.06 0.06 0.05 0.04 0.04 0.04 0.04 0.07 0.06 0.06 0.04 0.04 0.02 0.01 0.02 0.03 0.04 0.05 0.05 0.04
0.00 0.00 0.01 0.02 0.01 0.01 0.02 0.02 0.04 0.05 0.07 0.07 0.09 0.09 0.10 0.10 0.10 0.10 0.08 0.08 0.05 0.04 0.06 0.06 0.04 0.03 0.03 0.03 0.04 0.04 0.04 0.06 0.06 0.03 0.05 0.04 0.01 0.01 0.01 0.02 0.03 0.05 0.05
0.00 0.00 0.01 0.02 0.01 0.01 0.01 0.01 0.02 0.04 0.07 0.07 0.09 0.09 0.08 0.08 0.08 0.07 0.09 0.07 0.06 0.05 0.07 0.07 0.05 0.03 0.04 0.05 0.05 0.05 0.06 0.06 0.05 0.04 0.04 0.03 0.02 0.01 0.00 0.01 0.01 0.04 0.06
0.00 0.01 0.01 0.01 0.01 0.01 0.01 0.01 0.01 0.03 0.04 0.06 0.07 0.06 0.06 0.07 0.06 0.06 0.07 0.08 0.09 0.09 0.11 0.10 0.07 0.05 0.06 0.06 0.07 0.06 0.06 0.06 0.05 0.05 0.05 0.05 0.02 0.02 0.01 0.01 0.01 0.01 0.03
0.00 0.01 0.01 0.01 0.01 0.01 0.02 0.02 0.02 0.03 0.04 0.05 0.05 0.06 0.07 0.07 0.06 0.06 0.07 0.09 0.12 0.12 0.10 0.09 0.07 0.06 0.06 0.07 0.07 0.07 0.07 0.06 0.06 0.04 0.04 0.04 0.03 0.04 0.03 0.02 0.01 0.01 0.01
0.00 0.01 0.02 0.01 0.01 0.01 0.02 0.03 0.03 0.04 0.05 0.06 0.06 0.06 0.07 0.09 0.07 0.07 0.08 0.09 0.09 0.08 0.09 0.09 0.10 0.07 0.06 0.06 0.07 0.06 0.06 0.07 0.06 0.05 0.05 0.06 0.05 0.05 0.04 0.04 0.03 0.02 0.02
0.00 0.02 0.04 0.02 0.01 0.01 0.02 0.03 0.04 0.06 0.08 0.07 0.07 0.08 0.07 0.08 0.08 0.08 0.08 0.08 0.08 0.08 0.08 0.09 0.08 0.07 0.06 0.06 0.05 0.05 0.05 0.06 0.06 0.06 0.06 0.07 0.07 0.07 0.06 0.05 0.04 0.02 0.02
0.00 0.02 0.03 0.02 0.01 0.01 0.02 0.03 0.04 0.06 0.08 0.10 0.10 0.09 0.08 0.07 0.07 0.08 0.08 0.07 0.06 0.06 0.08 0.09 0.09 0.07 0.07 0.07 0.06 0.05 0.06 0.06 0.06 0.06 0.06 0.06 0.06 0.06 0.06 0.05 0.05 0.04 0.04
0.01 0.01 0.02 0.03 0.03 0.02 0.03 0.03 0.04 0.04 0.06 0.09 0.11 0.12 0.11 0.10 0.09 0.08 0.07 0.07 0.07 0.07 0.10 0.10 0.09 0.08 0.07 0.06 0.08 0.08 0.08 0.08 0.07 0.07 0.06 0.05 0.05 0.05 0.05 0.04 0.04 0.04 0.04
0.01 0.01 0.02 0.03 0.03 0.03 0.04 0.05 0.05 0.04 0.04 0.07 0.09 0.12 0.13 0.14 0.11 0.07 0.07 0.09 0.10 0.10 0.09 0.07 0.08 0.08 0.06 0.07 0.08 0.09 0.11 0.12 0.10 0.08 0.07 0.05 0.04 0.04 0.04 0.04 0.04 0.04 0.04
0.01 0.01 0.03 0.04 0.04 0.04 0.04 0.05 0.05 0.05 0.04 0.05 0.06 0.11 0.12 0.13 0.12 0.09 0.08 0.09 0.10 0.09 0.08 0.06 0.07 0.08 0.09 0.13 0.13 0.11 0.10 0.12 0.10 0.09 0.09 0.05 0.04 0.05 0.04 0.04 0.05 0.04 0.03
0.00 0.01 0.02 0.03 0.04 0.06 0.05 0.05 0.05 0.04 0.04 0.05 0.07 0.09 0.12 0.12 0.13 0.14 0.11 0.11 0.09 0.07 0.07 0.07 0.08 0.10 0.12 0.15 0.14 0.13 0.12 0.12 0.09 0.08 0.07 0.07 0.07 0.07 0.07 0.06 0.06 0.05 0.05
0.00 0.00 0.01 0.03 0.05 0.05 0.06 0.05 0.04 0.04 0.04 0.05 0.06 0.06 0.08 0.09 0.11 0.12 0.11 0.10 0.09 0.07 0.06 0.06 0.06 0.08 0.09 0.09 0.08 0.08 0.08 0.08 0.06 0.06 0.06 0.05 0.04 0.06 0.08 0.08 0.07 0.05 0.06
0.00 0.00 0.00 0.01 0.04 0.06 0.06 0.05 0.04 0.03 0.03 0.03 0.04 0.05 0.06 0.07 0.08 0.08 0.09 0.10 0.10 0.08 0.07 0.06 0.05 0.06 0.09 0.07 0.06 0.05 0.05 0.07 0.07 0.07 0.05 0.04 0.04 0.07 0.07 0.07 0.07 0.06 0.06
0.00 0.01 0.01 0.02 0.04 0.05 0.06 0.06 0.04 0.03 0.03 0.03 0.04 0.04 0.05 0.07 0.09 0.09 0.09 0.08 0.08 0.09 0.07 0.08 0.07 0.08 0.09 0.07 0.05 0.04 0.05 0.07 0.08 0.07 0.06 0.05 0.06 0.06 0.06 0.05 0.05 0.05 0.06
0.01 0.01 0.01 0.02 0.03 0.04 0.05 0.05 0.04 0.03 0.04 0.05 0.05 0.05 0.05 0.05 0.06 0.09 0.08 0.08 0.09 0.08 0.07 0.08 0.08 0.09 0.09 0.07 0.04 0.03 0.03 0.05 0.07 0.06 0.06 0.06 0.07 0.06 0.05 0.05 0.04 0.04 0.05
0.01 0.01 0.02 0.03 0.03 0.03 0.03 0.04 0.05 0.06 0.06 0.07 0.08 0.09 0.08 0.07 0.07 0.07 0.06 0.07 0.09 0.09 0.08 0.08 0.07 0.06 0.07 0.08 0.08 0.06 0.06 0.06 0.05 0.06 0.08 0.07 0.08 0.07 0.07 0.07 0.06 0.06 0.06
0.02 0.03 0.04 0.05 0.05 0.04 0.04 0.05 0.06 0.06 0.07 0.07 0.08 0.11 0.11 0.09 0.08 0.08 0.07 0.07 0.07 0.08 0.08 0.09 0.08 0.08 0.08 0.08 0.08 0.08 0.08 0.06 0.05 0.06 0.09 0.10 0.10 0.10 0.09 0.08 0.07 0.06 0.07
0.04 0.04 0.05 0.06 0.05 0.04 0.05 0.05 0.05 0.05 0.05 0.04 0.06 0.08 0.09 0.10 0.10 0.08 0.07 0.08 0.10 0.11 0.12 0.13 0.12 0.12 0.12 0.13 0.14 0.13 0.13 0.12 0.10 0.12 0.13 0.13 0.13 0.12 0.09 0.07 0.07 0.08 0.08
0.04 0.03 0.04 0.05 0.05 0.06 0.06 0.06 0.06 0.06 0.05 0.05 0.06 0.07 0.08 0.09 0.09 0.09 0.08 0.09 0.10 0.11 0.12 0.15 0.16 0.15 0.16 0.15 0.14 0.12 0.11 0.10 0.10 0.11 0.11 0.11 0.10 0.09 0.08 0.07 0.09 0.10 0.08
MSLP
1003.78 1004.56 1005.33 1006.04 1006.66 1007.18 1007.64 1008.07 1008.50 1008.96 1009.45 1009.97 1010.49 1010.97 1011.40 1011.75 1012.02 1012.25 1012.45 1012.66 1012.92 1013.22 1013.58 1013.98 1014.39 1014.78 1015.14 1015.46 1015.72 1015.94 1016.14 1016.33 1016.52 1016.71 1016.90 1017.07 1017.21 1017.30 1017.34 1017.33 1017.31 1017.29 1017.30
1003.43 1004.18 1004.93 1005.62 1006.21 1006.73 1007.20 1007.66 1008.14 1008.68 1009.27 1009.88 1010.47 1011.00 1011.45 1011.78 1012.02 1012.18 1012.31 1012.47 1012.67 1012.95 1013.30 1013.71 1014.14 1014.57 1014.95 1015.27 1015.53 1015.75 1015.95 1016.13 1016.34 1016.56 1016.78 1017.00 1017.18 1017.31 1017.37 1017.37 1017.34 1017.29 1017.27
1003.04 1003.77 1004.48 1005.14 1005.72 1006.22 1006.69 1007.17 1007.70 1008.31 1008.97 1009.66 1010.32 1010.91 1011.39 1011.73 1011.95 1012.07 1012.16 1012.27 1012.44 1012.70 1013.04 1013.46 1013.91 1014.34 1014.74 1015.07 1015.33 1015.55 1015.74 1015.93 1016.14 1016.39 1016.66 1016.92 1017.15 1017.33 1017.43 1017.45 1017.42 1017.36 1017.31
1002.61 1003.31 1004.00 1004.64 1005.19 1005.68 1006.14 1006.63 1007.19 1007.84 1008.56 1009.31 1010.04 1010.69 1011.21 1011.58 1011.80 1011.92 1012.00 1012.09 1012.24 1012.48 1012.82 1013.24 1013.70 1014.14 1014.55 1014.88 1015.15 1015.37 1015.56 1015.77 1016.00 1016.27 1016.57 1016.88 1017.16 1017.37 1017.51 1017.55 1017.52 1017.45 1017.37
1002.16 1002.83 1003.51 1004.13 1004.67 1005.15 1005.60 1006.09 1006.66 1007.33 1008.08 1008.88 1009.66 1010.36 1010.93 1011.34 1011.60 1011.74 1011.82 1011.91 1012.06 1012.30 1012.64 1013.05 1013.51 1013.97 1014.38 1014.73 1015.01 1015.24 1015.45 1015.67 1015.92 1016.21 1016.54 1016.87 1017.18 1017.42 1017.57 1017.63 1017.59 1017.49 1017.37
1001.73 1002.39 1003.06 1003.67 1004.21 1004.67 1005.11 1005.58 1006.14 1006.81 1007.57 1008.39 1009.20 1009.94 1010.56 1011.02 1011.32 1011.50 1011.62 1011.73 1011.88 1012.12 1012.46 1012.87 1013.33 1013.79 1014.21 1014.57 1014.87 1015.13 1015.35 1015.59 1015.86 1016.17 1016.51 1016.86 1017.17 1017.42 1017.57 1017.62 1017.57 1017.44 1017.28
1001.37 1002.03 1002.70 1003.31 1003.84 1004.29 1004.72 1005.17 1005.70 1006.33 1007.08 1007.88 1008.70 1009.47 1010.12 1010.62 1010.98 1011.21 1011.37 1011.51 1011.68 1011.93 1012.26 1012.66 1013.11 1013.57 1014.00 1014.38 1014.70 1014.98 1015.23 1015.49 1015.78 1016.10 1016.44 1016.78 1017.09 1017.33 1017.47 1017.50 1017.43 1017.28 1017.08
1001.15 1001.80 1002.46 1003.08 1003.60 1004.05 1004.45 1004.86 1005.35 1005.93 1006.63 1007.40 1008.19 1008.95 1009.62 1010.16 1010.56 1010.84 1011.04 1011.22 1011.41 1011.67 1011.99 1012.39 1012.83 1013.28 1013.71 1014.10 1014.45 1014.75 1015.03 1015.31 1015.61 1015.93 1016.27 1016.60 1016.89 1017.12 1017.25 1017.27 1017.20 1017.04 1016.83
1001.10 1001.73 1002.39 1002.99 1003.51 1003.93 1004.30 1004.67 1005.09 1005.61 1006.23 1006.94 1007.68 1008.41 1009.07 1009.62 1010.06 1010.38 1010.63 1010.84 1011.06 1011.33 1011.65 1012.04 1012.47 1012.91 1013.34 1013.74 1014.10 1014.43 1014.73 1015.03 1015.34 1015.66 1015.99 1016.31 1016.59 1016.81 1016.94 1016.98 1016.92 1016.77 1016.58
1001.21 1001.82 1002.46 1003.04 1003.53 1003.92 1004.25 1004.57 1004.92 1005.36 1005.89 1006.50 1007.17 1007.84 1008.47 1009.02 1009.48 1009.84 1010.13 1010.38 1010.64 1010.92 1011.25 1011.64 1012.05 1012.49 1012.92 1013.32 1013.70 1014.05 1014.37 1014.68 1015.00 1015.32 1015.65 1015.96 1016.24 1016.47 1016.62 1016.68 1016.67 1016.57 1016.43
1001.46 1002.03 1002.63 1003.17 1003.63 1003.98 1004.26 1004.52 1004.80 1005.14 1005.57 1006.08 1006.66 1007.25 1007.83 1008.37 1008.83 1009.22 1009.56 1009.86 1010.16 1010.48 1010.83 1011.22 1011.64 1012.08 1012.51 1012.92 1013.31 1013.67 1014.01 1014.33 1014.66 1014.99 1015.31 1015.63 1015.92 1016.16 1016.35 1016.46 1016.51 1016.49 1016.42
1001.78 1002.30 1002.84 1003.33 1003.74 1004.05 1004.28 1004.48 1004.68 1004.94 1005.27 1005.67 1006.15 1006.66 1007.19 1007.69 1008.16 1008.58 1008.96 1009.33 1009.68 1010.05 1010.45 1010.87 1011.31 1011.75 1012.19 1012.61 1013.01 1013.38 1013.73 1014.07 1014.40 1014.73 1015.06 1015.38 1015.68 1015.95 1016.18 1016.35 1016.47 1016.53 1016.54
1002.08 1002.55 1003.03 1003.46 1003.81 1004.08 1004.27 1004.41 1004.56 1004.73 1004.97 1005.28 1005.66 1006.10 1006.56 1007.04 1007.51 1007.96 1008.40 1008.83 1009.26 1009.70 1010.15 1010.62 1011.09 1011.56 1012.01 1012.45 1012.85 1013.23 1013.60 1013.94 1014.28 1014.61 1014.93 1015.26 1015.57 1015.85 1016.11 1016.33 1016.50 1016.63 1016.71
1002.32 1002.74 1003.15 1003.53 1003.84 1004.06 1004.22 1004.33 1004.42 1004.54 1004.70 1004.93 1005.23 1005.59 1006.01 1006.46 1006.94 1007.43 1007.93 1008.43 1008.94 1009.46 1009.98 1010.50 1011.01 1011.51 1011.98 1012.43 1012.85 1013.24 1013.60 1013.95 1014.28 1014.61 1014.93 1015.24 1015.54 1015.83 1016.09 1016.33 1016.53 1016.69 1016.80
1002.46 1002.84 1003.21 1003.54 1003.81 1004.01 1004.14 1004.23 1004.30 1004.38 1004.49 1004.66 1004.89 1005.20 1005.57 1006.01 1006.50 1007.02 1007.58 1008.16 1008.75 1009.34 1009.92 1010.50 1011.04 1011.57 1012.06 1012.51 1012.93 1013.33 1013.69 1014.03 1014.36 1014.67 1014.97 1015.26 1015.54 1015.79 1016.03 1016.24 1016.43 1016.58 1016.70
1002.52 1002.88 1003.22 1003.53 1003.78 1003.97 1004.10 1004.18 1004.24 1004.29 1004.37 1004.49 1004.68 1004.94 1005.28 1005.71 1006.20 1006.76 1007.37 1008.01 1008.66 1009.31 1009.95 1010.55 1011.13 1011.66 1012.15 1012.60 1013.02 1013.40 1013.76 1014.09 1014.40 1014.70 1014.97 1015.22 1015.45 1015.65 1015.83 1015.99 1016.12 1016.23 1016.32
1002.56 1002.92 1003.26 1003.55 1003.80 1003.99 1004.12 1004.21 1004.26 1004.31 1004.36 1004.45 1004.61 1004.84 1005.15 1005.57 1006.07 1006.65 1007.29 1007.96 1008.65 1009.34 1010.00 1010.61 1011.18 1011.70 1012.17 1012.60 1012.99 1013.36 1013.70 1014.01 1014.31 1014.58 1014.82 1015.02 1015.20 1015.33 1015.44 1015.52 1015.58 1015.62 1015.65
1002.66 1003.04 1003.39 1003.69 1003.95 1004.14 1004.28 1004.37 1004.42 1004.45 1004.49 1004.56 1004.68 1004.88 1005.18 1005.58 1006.08 1006.66 1007.31 1008.00 1008.70 1009.38 1010.02 1010.61 1011.15 1011.62 1012.04 1012.43 1012.78 1013.11 1013.43 1013.72 1014.00 1014.25 1014.46 1014.63 1014.75 1014.83 1014.87 1014.87 1014.85 1014.82 1014.79
1002.90 1003.32 1003.69 1004.01 1004.27 1004.46 1004.60 1004.68 1004.72 1004.73 1004.74 1004.78 1004.88 1005.05 1005.33 1005.71 1006.20 1006.77 1007.41 1008.09 1008.76 1009.41 1010.01 1010.54 1011.01 1011.41 1011.77 1012.08 1012.38 1012.67 1012.95 1013.23 1013.49 1013.73 1013.93 1014.08 1014.18 1014.22 1014.20 1014.15 1014.07 1013.99 1013.91
1003.36 1003.82 1004.21 1004.54 1004.79 1004.97 1005.09 1005.14 1005.15 1005.12 1005.10 1005.11 1005.17 1005.32 1005.57 1005.93 1006.40 1006.96 1007.58 1008.22 1008.86 1009.45 1009.98 1010.44 1010.82 1011.14 1011.40 1011.65 1011.88 1012.12 1012.37 1012.62 1012.88 1013.12 1013.33 1013.48 1013.58 1013.62 1013.59 1013.52 1013.42 1013.31 1013.22
1004.07 1004.56 1004.96 1005.27 1005.51 1005.65 1005.73 1005.73 1005.69 1005.61 1005.54 1005.51 1005.54 1005.66 1005.89 1006.24 1006.69 1007.23 1007.82 1008.43 1009.02 1009.55 1010.01 1010.39 1010.68 1010.90 1011.08 1011.25 1011.41 1011.60 1011.82 1012.06 1012.32 1012.57 1012.80 1012.99 1013.12 1013.19 1013.19 1013.14 1013.06 1012.97 1012.89
1005.01 1005.51 1005.91 1006.20 1006.39 1006.48 1006.49 1006.43 1006.32 1006.19 1006.06 1005.98 1005.98 1006.08 1006.29 1006.63 1007.07 1007.60 1008.18 1008.76 1009.31 1009.79 1010.19 1010.49 1010.70 1010.85 1010.95 1011.05 1011.15 1011.29 1011.48 1011.71 1011.98 1012.25 1012.52 1012.75 1012.93 1013.06 1013.12 1013.13 1013.11 1013.06 1013.02
1006.15 1006.64 1007.00 1007.25 1007.38 1007.41 1007.35 1007.22 1007.04 1006.84 1006.67 1006.55 1006.51 1006.60 1006.81 1007.14 1007.59 1008.12 1008.69 1009.26 1009.79 1010.24 1010.60 1010.85 1011.02 1011.10 1011.15 1011.19 1011.24 1011.35 1011.51 1011.73 1011.99 1012.28 1012.58 1012.87 1013.11 1013.30 1013.44 1013.53 1013.57 1013.59 1013.60
1007.40 1007.85 1008.17 1008.37 1008.44 1008.40 1008.27 1008.07 1007.83 1007.58 1007.36 1007.21 1007.17 1007.25 1007.47 1007.82 1008.28 1008.83 1009.41 1009.99 1010.52 1010.97 1011.31 1011.54 1011.67 1011.73 1011.74 1011.74 1011.76 1011.83 1011.96 1012.16 1012.42 1012.72 1013.04 1013.36 1013.66 1013.91 1014.12 1014.28 1014.39 1014.47 1014.52
1008.67 1009.07 1009.34 1009.48 1009.50 1009.41 1009.22 1008.97 1008.69 1008.41 1008.17 1008.02 1007.98 1008.07 1008.31 1008.69 1009.18 1009.76 1010.36 1010.96 1011.51 1011.97 1012.32 1012.55 1012.68 1012.73 1012.72 1012.70 1012.69 1012.73 1012.84 1013.01 1013.25 1013.54 1013.86 1014.19 1014.51 1014.81 1015.06 1015.27 1015.43 1015.54 1015.62
1009.85 1010.21 1010.43 1010.53 1010.51 1010.39 1010.17 1009.90 1009.61 1009.32 1009.10 1008.96 1008.95 1009.07 1009.35 1009.76 1010.29 1010.89 1011.53 1012.15 1012.72 1013.20 1013.57 1013.82 1013.96 1014.01 1014.00 1013.96 1013.94 1013.95 1014.02 1014.16 1014.36 1014.62 1014.92 1015.24 1015.55 1015.85 1016.12 1016.34 1016.51 1016.63 1016.70
Thickness
5827 5826 5821 5817 5811 5805 5799 5793 5788 5784 5779 5774 5771 5768 5766 5767 5767 5767 5765 5763 5761 5760 5758 5759 5757 5756 5754 5751 5750 5748 5746 5746 5747 5743 5740 5742 5746 5745 5745 5744 5743 5741 5739
5823 5821 5818 5814 5809 5803 5797 5792 5787 5783 5779 5775 5772 5770 5768 5765 5766 5766 5765 5762 5761 5760 5759 5757 5756 5754 5753 5751 5750 5748 5745 5745 5746 5741 5735 5730 5733 5739 5746 5744 5743 5742 5740
5820 5819 5815 5812 5808 5802 5797 5793 5788 5783 5779 5776 5771 5768 5765 5763 5762 5761 5761 5762 5761 5760 5760 5758 5757 5755 5753 5750 5749 5748 5744 5741 5745 5745 5738 5730 5725 5732 5739 5743 5744 5743 5741
5826 5821 5815 5810 5807 5803 5799 5794 5788 5783 5779 5775 5770 5765 5760 5757 5760 5761 5761 5761 5762 5761 5760 5758 5757 5755 5754 5751 5750 5749 5748 5744 5741 5744 5745 5743 5740 5731 5728 5736 5741 5742 5741
5831 5824 5818 5813 5809 5805 5800 5794 5788 5783 5779 5775 5771 5767 5763 5761 5761 5762 5761 5760 5760 5760 5760 5758 5757 5755 5753 5752 5751 5750 5748 5747 5744 5743 5744 5743 5742 5740 5732 5728 5733 5738 5741
5833 5827 5821 5815 5809 5806 5801 5795 5788 5782 5779 5775 5772 5768 5764 5762 5760 5759 5758 5758 5759 5759 5759 5759 5757 5755 5753 5752 5751 5750 5748 5746 5746 5745 5745 5743 5740 5738 5736 5732 5732 5733 5739
5832 5825 5818 5813 5809 5805 5800 5795 5788 5782 5779 5775 5772 5769 5766 5764 5762 5760 5759 5759 5758 5758 5758 5759 5756 5755 5753 5752 5751 5749 5748 5747 5745 5744 5744 5745 5745 5745 5742 5737 5734 5735 5738
5833 5827 5821 5816 5810 5806 5801 5796 5789 5783 5780 5776 5772 5770 5767 5765 5764 5763 5762 5761 5761 5761 5761 5758 5756 5754 5753 5752 5751 5749 5747 5746 5745 5745 5744 5744 5746 5747 5746 5742 5737 5731 5732
5832 5828 5823 5818 5813 5808 5803 5797 5791 5785 5781 5777 5773 5770 5768 5766 5765 5764 5764 5763 5762 5762 5760 5758 5755 5754 5753 5752 5750 5748 5747 5746 5745 5744 5744 5743 5745 5746 5747 5746 5743 5734 5726
5829 5826 5822 5818 5814 5810 5804 5799 5793 5787 5782 5778 5775 5772 5769 5767 5766 5765 5763 5763 5762 5760 5758 5755 5753 5752 5751 5750 5748 5747 5746 5745 5744 5743 5743 5742 5744 5745 5746 5746 5745 5743 5735
5826 5823 5821 5818 5815 5810 5805 5798 5793 5788 5783 5779 5776 5773 5770 5768 5766 5764 5764 5762 5760 5758 5756 5754 5752 5751 5750 5749 5747 5746 5745 5743 5742 5742 5742 5741 5742 5742 5743 5744 5743 5742 5740
5824 5822 5818 5816 5812 5807 5803 5798 5793 5789 5785 5781 5776 5773 5771 5769 5766 5764 5763 5762 5759 5757 5756 5754 5751 5750 5749 5748 5746 5744 5744 5742 5740 5740 5740 5740 5740 5739 5740 5740 5740 5740 5740
5818 5818 5814 5811 5808 5805 5801 5797 5793 5789 5786 5781 5776 5772 5771 5768 5766 5764 5762 5760 5758 5756 5754 5752 5750 5748 5748 5746 5745 5744 5743 5742 5741 5740 5738 5738 5738 5736 5737 5737 5737 5738 5739
5812 5810 5805 5804 5804 5802 5798 5795 5791 5789 5785 5780 5776 5772 5770 5768 5766 5764 5762 5759 5757 5754 5752 5751 5749 5748 5747 5746 5744 5743 5742 5741 5740 5739 5738 5737 5736 5735 5734 5734 5734 5734 5733
5804 5802 5799 5799 5798 5797 5794 5792 5789 5786 5783 5778 5774 5772 5770 5768 5765 5762 5760 5758 5756 5754 5752 5750 5748 5747 5746 5746 5744 5742 5740 5738 5737 5737 5736 5735 5735 5734 5733 5732 5731 5731 5729
5797 5798 5796 5794 5792 5791 5790 5788 5785 5782 5780 5775 5772 5771 5768 5765 5762 5760 5758 5755 5753 5751 5749 5747 5746 5746 5747 5746 5743 5741 5739 5737 5734 5733 5732 5732 5731 5731 5730 5729 5729 5728 5726
5793 5792 5792 5790 5789 5789 5787 5783 5781 5779 5775 5772 5770 5767 5764 5761 5759 5758 5754 5751 5749 5748 5746 5745 5745 5743 5742 5742 5740 5738 5737 5734 5732 5731 5729 5729 5731 5729 5728 5726 5725 5724 5723
5788 5788 5788 5787 5787 5786 5784 5781 5778 5774 5771 5768 5765 5763 5760 5757 5756 5754 5751 5748 5747 5745 5744 5743 5742 5740 5739 5737 5735 5734 5732 5731 5730 5728 5727 5725 5725 5726 5725 5723 5721 5720 5720
5785 5784 5784 5783 5781 5780 5779 5776 5772 5769 5766 5763 5761 5760 5758 5755 5752 5749 5747 5746 5744 5742 5741 5740 5738 5736 5735 5733 5731 5728 5727 5726 5725 5725 5725 5723 5722 5722 5720 5718 5717 5716 5716
5780 5779 5779 5778 5774 5774 5774 5769 5765 5763 5761 5760 5759 5758 5755 5752 5748 5746 5745 5744 5742 5739 5738 5737 5736 5734 5732 5729 5727 5724 5724 5722 5721 5720 5720 5719 5718 5717 5715 5713 5711 5709 5709
5773 5773 5771 5768 5767 5768 5767 5762 5759 5758 5758 5758 5756 5754 5751 5748 5746 5744 5742 5740 5738 5735 5734 5732 5731 5731 5729 5726 5723 5721 5720 5719 5717 5716 5716 5716 5715 5712 5710 5708 5706 5704 5703
5764 5764 5761 5760 5761 5761 5759 5755 5753 5755 5756 5754 5751 5748 5746 5745 5743 5739 5738 5736 5733 5730 5728 5726 5725 5726 5725 5723 5720 5717 5715 5715 5713 5713 5712 5711 5710 5707 5705 5702 5700 5698 5696
5755 5755 5753 5752 5753 5753 5752 5749 5749 5751 5749 5747 5744 5742 5740 5739 5738 5735 5732 5730 5728 5726 5724 5722 5720 5719 5720 5718 5716 5713 5711 5709 5707 5708 5706 5704 5703 5700 5697 5694 5692 5689 5687
5745 5745 5744 5742 5742 5745 5745 5744 5745 5744 5742 5739 5737 5735 5733 5731 5729 5728 5726 5723 5722 5721 5719 5718 5716 5715 5714 5713 5712 5709 5706 5702 5700 5699 5698 5696 5694 5692 5690 5687 5683 5680 5678
5735 5735 5734 5733 5734 5735 5736 5738 5738 5737 5734 5732 5730 5728 5726 5724 5720 5717 5714 5714 5711 5713 5712 5712 5711 5709 5706 5704 5704 5704 5702 5700 5697 5693 5691 5689 5686 5684 5681 5679 5676 5673 5669
5725 5725 5724 5724 5724 5726 5727 5729 5730 5729 5727 5724 5722 5721 5719 5717 5714 5710 5705 5702 5702 5701 5701 5701 5700 5697 5695 5694 5694 5694 5693 5691 5689 5685 5683 5679 5677 5674 5672 5669 5666 5664 5661